Time,TemperatureF,DewpointF,PressureIn,WindDirection,WindDirectionDegrees,WindSpeedMPH,WindSpeedGustMPH,Humidity,HourlyPrecipIn,Conditions,Clouds,dailyrainin,SoftwareType,DateUTC
2016-12-05 00:01:00,37.8,36.0,30.11,ENE,73,0.0,0.0,93,0.00,,,0.00,meteobridge,2016-12-05 08:01:00,
2016-12-05 00:06:00,37.6,35.8,30.11,ENE,73,0.0,0.0,93,0.00,,,0.00,meteobridge,2016-12-05 08:06:00,
2016-12-05 00:11:00,37.6,35.8,30.11,ENE,73,0.0,0.0,93,0.00,,,0.00,meteobridge,2016-12-05 08:11:00,
2016-12-05 00:16:00,37.8,36.0,30.11,ENE,73,0.0,1.0,93,0.00,,,0.00,meteobridge,2016-12-05 08:16:00,
2016-12-05 00:21:00,37.6,35.8,30.11,ENE,73,0.0,0.0,93,0.00,,,0.00,meteobridge,2016-12-05 08:21:00,
2016-12-05 00:27:00,37.6,35.8,30.12,ENE,73,0.0,0.0,93,0.00,,,0.00,meteobridge,2016-12-05 08:27:00,
2016-12-05 00:32:00,37.6,35.8,30.11,ENE,73,0.9,1.0,93,0.00,,,0.00,meteobridge,2016-12-05 08:32:00,
2016-12-05 00:37:00,37.6,35.8,30.11,ENE,73,0.0,0.0,93,0.00,,,0.00,meteobridge,2016-12-05 08:37:00,
2016-12-05 00:42:00,37.6,35.8,30.11,ENE,73,0.0,0.0,93,0.00,,,0.00,meteobridge,2016-12-05 08:42:00,
2016-12-05 00:47:00,37.6,35.8,30.11,ENE,73,0.0,0.0,93,0.00,,,0.00,meteobridge,2016-12-05 08:47:00,
2016-12-05 00:52:00,37.4,35.6,30.11,ENE,73,0.0,1.0,93,0.00,,,0.00,meteobridge,2016-12-05 08:52:00,
2016-12-05 00:57:00,37.2,35.4,30.11,ENE,73,0.0,1.0,93,0.00,,,0.00,meteobridge,2016-12-05 08:57:00,
2016-12-05 01:02:00,37.2,35.4,30.10,ENE,73,0.0,1.0,93,0.00,,,0.00,meteobridge,2016-12-05 09:02:00,
2016-12-05 01:07:00,37.0,35.2,30.10,ENE,73,0.0,1.0,93,0.00,,,0.00,meteobridge,2016-12-05 09:07:00,
2016-12-05 01:12:00,37.0,35.2,30.10,ENE,73,0.0,1.0,93,0.00,,,0.00,meteobridge,2016-12-05 09:12:00,
2016-12-05 01:17:00,36.9,35.1,30.10,ENE,73,0.0,1.0,93,0.00,,,0.00,meteobridge,2016-12-05 09:17:00,
2016-12-05 01:22:00,36.9,34.7,30.10,ENE,73,0.0,0.0,92,0.00,,,0.00,meteobridge,2016-12-05 09:22:00,
2016-12-05 01:27:00,36.7,34.5,30.10,ENE,73,0.0,0.0,92,0.00,,,0.00,meteobridge,2016-12-05 09:27:00,
2016-12-05 01:32:00,36.7,34.9,30.10,ENE,73,0.0,0.0,93,0.00,,,0.00,meteobridge,2016-12-05 09:32:00,
2016-12-05 01:37:00,36.7,34.5,30.10,ENE,73,0.0,0.0,92,0.00,,,0.00,meteobridge,2016-12-05 09:37:00,
2016-12-05 01:42:00,36.7,34.5,30.10,ENE,73,0.0,0.0,92,0.00,,,0.00,meteobridge,2016-12-05 09:42:00,
2016-12-05 01:47:00,36.5,34.7,30.10,ENE,73,0.0,0.0,93,0.00,,,0.00,meteobridge,2016-12-05 09:47:00,
2016-12-05 01:52:00,36.3,34.2,30.10,ENE,73,0.0,0.0,92,0.00,,,0.00,meteobridge,2016-12-05 09:52:00,
2016-12-05 01:58:00,36.3,34.2,30.10,ENE,73,0.0,0.0,92,0.00,,,0.00,meteobridge,2016-12-05 09:58:00,
2016-12-05 02:03:00,36.3,34.5,30.10,ENE,73,0.0,0.0,93,0.00,,,0.00,meteobridge,2016-12-05 10:03:00,
2016-12-05 02:08:00,36.3,34.2,30.10,ENE,73,0.0,0.0,92,0.00,,,0.00,meteobridge,2016-12-05 10:08:00,
2016-12-05 02:13:00,36.1,34.0,30.10,ENE,73,0.0,0.0,92,0.00,,,0.00,meteobridge,2016-12-05 10:13:00,
2016-12-05 02:18:00,36.1,34.0,30.10,ENE,73,0.0,0.0,92,0.00,,,0.00,meteobridge,2016-12-05 10:18:00,
2016-12-05 02:23:00,36.0,33.8,30.10,ENE,73,0.0,0.0,92,0.00,,,0.00,meteobridge,2016-12-05 10:23:00,
2016-12-05 02:28:00,36.0,33.8,30.10,ENE,73,0.0,0.0,92,0.00,,,0.00,meteobridge,2016-12-05 10:28:00,
2016-12-05 02:33:00,36.0,33.8,30.10,ENE,73,0.0,0.0,92,0.00,,,0.00,meteobridge,2016-12-05 10:33:00,
2016-12-05 02:38:00,36.0,33.8,30.10,ENE,73,0.0,0.0,92,0.00,,,0.00,meteobridge,2016-12-05 10:38:00,
2016-12-05 02:43:00,36.0,33.8,30.10,ENE,73,0.0,1.0,92,0.00,,,0.00,meteobridge,2016-12-05 10:43:00,
2016-12-05 02:48:00,36.0,33.8,30.09,ENE,73,0.0,0.0,92,0.00,,,0.00,meteobridge,2016-12-05 10:48:00,
2016-12-05 02:54:00,35.8,33.6,30.09,ENE,73,0.0,0.0,92,0.00,,,0.00,meteobridge,2016-12-05 10:54:00,
2016-12-05 02:59:00,35.8,33.6,30.09,ENE,73,0.0,1.0,92,0.00,,,0.00,meteobridge,2016-12-05 10:59:00,
2016-12-05 03:04:00,35.8,33.6,30.09,ENE,73,0.0,0.0,92,0.00,,,0.00,meteobridge,2016-12-05 11:04:00,
2016-12-05 03:09:00,35.8,33.6,30.09,ENE,73,0.0,1.0,92,0.00,,,0.00,meteobridge,2016-12-05 11:09:00,
2016-12-05 03:14:00,35.6,33.3,30.09,ENE,73,0.0,1.0,91,0.00,,,0.00,meteobridge,2016-12-05 11:14:00,
2016-12-05 03:19:00,35.4,33.1,30.09,ENE,73,0.0,0.0,91,0.00,,,0.00,meteobridge,2016-12-05 11:19:00,
2016-12-05 03:24:00,35.4,33.1,30.09,ENE,73,0.0,0.0,91,0.00,,,0.00,meteobridge,2016-12-05 11:24:00,
2016-12-05 03:29:00,35.4,33.1,30.09,ENE,73,0.0,0.0,91,0.00,,,0.00,meteobridge,2016-12-05 11:29:00,
2016-12-05 03:34:00,35.4,33.1,30.09,ENE,73,0.0,0.0,91,0.00,,,0.00,meteobridge,2016-12-05 11:34:00,
2016-12-05 03:39:00,35.2,32.9,30.09,ENE,73,0.0,0.0,91,0.00,,,0.00,meteobridge,2016-12-05 11:39:00,
2016-12-05 03:44:00,35.1,32.4,30.09,ENE,73,0.0,0.0,90,0.00,,,0.00,meteobridge,2016-12-05 11:44:00,
2016-12-05 03:49:00,35.1,32.4,30.09,ENE,73,0.0,1.0,90,0.00,,,0.00,meteobridge,2016-12-05 11:49:00,
2016-12-05 03:54:00,35.1,32.4,30.09,ENE,73,0.0,0.0,90,0.00,,,0.00,meteobridge,2016-12-05 11:54:00,
2016-12-05 04:00:00,35.1,32.2,30.09,ENE,73,0.0,1.0,89,0.00,,,0.00,meteobridge,2016-12-05 12:00:00,
2016-12-05 04:05:00,35.1,32.7,30.08,ENE,73,0.0,0.0,91,0.00,,,0.00,meteobridge,2016-12-05 12:05:00,
2016-12-05 04:10:00,35.1,32.4,30.08,ENE,73,0.0,0.0,90,0.00,,,0.00,meteobridge,2016-12-05 12:10:00,
2016-12-05 04:15:00,35.1,32.4,30.08,ENE,73,0.0,1.0,90,0.00,,,0.00,meteobridge,2016-12-05 12:15:00,
2016-12-05 04:20:00,35.1,32.4,30.08,ENE,73,0.0,0.0,90,0.00,,,0.00,meteobridge,2016-12-05 12:20:00,
2016-12-05 04:25:00,34.9,32.2,30.08,ENE,73,0.0,1.0,90,0.00,,,0.00,meteobridge,2016-12-05 12:25:00,
2016-12-05 04:30:00,34.9,32.2,30.08,ENE,73,0.0,0.0,90,0.00,,,0.00,meteobridge,2016-12-05 12:30:00,
2016-12-05 04:35:00,34.9,32.0,30.08,ENE,73,0.0,0.0,89,0.00,,,0.00,meteobridge,2016-12-05 12:35:00,
2016-12-05 04:40:00,34.9,32.2,30.08,ENE,73,0.0,0.0,90,0.00,,,0.00,meteobridge,2016-12-05 12:40:00,
2016-12-05 04:45:00,34.9,32.2,30.08,ENE,73,0.0,0.0,90,0.00,,,0.00,meteobridge,2016-12-05 12:45:00,
2016-12-05 04:50:00,34.9,32.2,30.08,ENE,73,0.0,1.0,90,0.00,,,0.00,meteobridge,2016-12-05 12:50:00,
2016-12-05 05:00:00,34.9,32.2,30.08,ENE,73,0.0,1.0,90,0.00,,,0.00,meteobridge,2016-12-05 13:00:00,
2016-12-05 05:05:00,34.9,32.0,30.09,ENE,73,0.0,0.0,89,0.00,,,0.00,meteobridge,2016-12-05 13:05:00,
2016-12-05 05:10:00,34.9,32.2,30.08,ENE,73,0.0,0.0,90,0.00,,,0.00,meteobridge,2016-12-05 13:10:00,
2016-12-05 05:15:00,34.7,32.0,30.08,ENE,73,0.0,0.0,90,0.00,,,0.00,meteobridge,2016-12-05 13:15:00,
2016-12-05 05:20:00,34.9,32.0,30.08,ENE,73,0.0,0.0,89,0.00,,,0.00,meteobridge,2016-12-05 13:20:00,
2016-12-05 05:25:00,34.9,32.0,30.08,ENE,73,0.0,1.0,89,0.00,,,0.00,meteobridge,2016-12-05 13:25:00,
2016-12-05 05:30:00,34.9,32.0,30.08,ENE,73,0.0,0.0,89,0.00,,,0.00,meteobridge,2016-12-05 13:30:00,
2016-12-05 05:35:00,34.9,32.0,30.08,ENE,73,0.0,0.0,89,0.00,,,0.00,meteobridge,2016-12-05 13:35:00,
2016-12-05 05:40:00,34.9,32.0,30.09,ENE,73,0.0,0.0,89,0.00,,,0.00,meteobridge,2016-12-05 13:40:00,
2016-12-05 05:45:00,34.9,32.0,30.09,ENE,73,0.0,1.0,89,0.00,,,0.00,meteobridge,2016-12-05 13:45:00,
2016-12-05 05:51:00,34.9,32.0,30.08,ENE,73,0.0,0.0,89,0.00,,,0.00,meteobridge,2016-12-05 13:51:00,
2016-12-05 05:56:00,34.9,32.2,30.08,ENE,73,0.0,0.0,90,0.00,,,0.00,meteobridge,2016-12-05 13:56:00,
2016-12-05 06:01:00,34.9,32.0,30.08,ENE,73,0.0,1.0,89,0.00,,,0.00,meteobridge,2016-12-05 14:01:00,
2016-12-05 06:06:00,35.1,32.4,30.08,ENE,73,0.0,0.0,90,0.00,,,0.00,meteobridge,2016-12-05 14:06:00,
2016-12-05 06:11:00,34.9,32.0,30.08,ENE,73,0.0,1.0,89,0.00,,,0.00,meteobridge,2016-12-05 14:11:00,
2016-12-05 06:16:00,34.9,32.0,30.08,ENE,73,0.0,0.0,89,0.00,,,0.00,meteobridge,2016-12-05 14:16:00,
2016-12-05 06:21:00,34.9,32.2,30.09,ENE,73,0.0,0.0,90,0.00,,,0.00,meteobridge,2016-12-05 14:21:00,
2016-12-05 06:26:00,34.9,32.2,30.09,ENE,73,0.0,0.0,90,0.00,,,0.00,meteobridge,2016-12-05 14:26:00,
2016-12-05 06:31:00,34.9,32.2,30.09,ENE,73,0.0,0.0,90,0.00,,,0.00,meteobridge,2016-12-05 14:31:00,
2016-12-05 06:36:00,34.9,32.2,30.09,ENE,73,0.0,0.0,90,0.00,,,0.00,meteobridge,2016-12-05 14:36:00,
2016-12-05 06:41:00,34.7,32.0,30.09,ENE,73,0.0,0.0,90,0.00,,,0.00,meteobridge,2016-12-05 14:41:00,
2016-12-05 06:46:00,34.7,32.0,30.09,ENE,73,0.0,1.0,90,0.00,,,0.00,meteobridge,2016-12-05 14:46:00,
2016-12-05 06:51:00,34.7,32.0,30.10,ENE,73,0.0,0.0,90,0.00,,,0.00,meteobridge,2016-12-05 14:51:00,
2016-12-05 06:56:00,34.5,31.8,30.10,ENE,73,0.0,1.0,90,0.00,,,0.00,meteobridge,2016-12-05 14:56:00,
2016-12-05 07:01:00,34.5,31.8,30.10,ENE,73,0.0,0.0,90,0.00,,,0.00,meteobridge,2016-12-05 15:01:00,
2016-12-05 07:07:00,34.5,31.8,30.10,ENE,73,0.0,1.0,90,0.00,,,0.00,meteobridge,2016-12-05 15:07:00,
2016-12-05 07:12:00,34.5,31.8,30.10,ENE,73,0.0,0.0,90,0.00,,,0.00,meteobridge,2016-12-05 15:12:00,
2016-12-05 07:17:00,34.5,31.8,30.10,ENE,73,0.0,0.0,90,0.00,,,0.00,meteobridge,2016-12-05 15:17:00,
2016-12-05 07:22:00,34.7,32.0,30.10,ENE,73,0.0,0.0,90,0.00,,,0.00,meteobridge,2016-12-05 15:22:00,
2016-12-05 07:27:00,34.7,32.0,30.10,ENE,73,0.9,1.0,90,0.00,,,0.00,meteobridge,2016-12-05 15:27:00,
2016-12-05 07:32:00,34.7,32.0,30.10,ENE,73,0.0,1.0,90,0.00,,,0.00,meteobridge,2016-12-05 15:32:00,
2016-12-05 07:37:00,34.9,32.5,30.10,ENE,73,0.0,1.0,91,0.00,,,0.00,meteobridge,2016-12-05 15:37:00,
2016-12-05 07:42:00,34.9,32.5,30.10,ENE,73,0.0,0.0,91,0.00,,,0.00,meteobridge,2016-12-05 15:42:00,
2016-12-05 07:47:00,35.1,32.7,30.10,ENE,73,0.0,0.0,91,0.00,,,0.00,meteobridge,2016-12-05 15:47:00,
2016-12-05 07:52:00,35.1,32.4,30.10,ENE,73,0.0,0.0,90,0.00,,,0.00,meteobridge,2016-12-05 15:52:00,
2016-12-05 07:57:00,35.1,32.7,30.10,ENE,73,0.0,1.0,91,0.00,,,0.00,meteobridge,2016-12-05 15:57:00,
2016-12-05 08:02:00,35.2,32.9,30.10,ENE,73,0.0,0.0,91,0.00,,,0.00,meteobridge,2016-12-05 16:02:00,
2016-12-05 08:07:00,35.2,32.9,30.11,ENE,73,0.0,0.0,91,0.00,,,0.00,meteobridge,2016-12-05 16:07:00,
2016-12-05 08:12:00,35.2,32.9,30.11,ENE,73,0.0,0.0,91,0.00,,,0.00,meteobridge,2016-12-05 16:12:00,
2016-12-05 08:17:00,35.4,33.1,30.11,ENE,73,0.0,0.0,91,0.00,,,0.00,meteobridge,2016-12-05 16:17:00,
2016-12-05 08:23:00,35.6,33.3,30.11,ENE,73,0.0,0.0,91,0.00,,,0.00,meteobridge,2016-12-05 16:23:00,
2016-12-05 08:28:00,35.8,33.4,30.11,ENE,73,0.0,0.0,91,0.00,,,0.00,meteobridge,2016-12-05 16:28:00,
2016-12-05 08:37:00,36.1,33.8,30.10,ENE,73,0.0,0.0,91,0.00,,,0.00,meteobridge,2016-12-05 16:37:00,
2016-12-05 08:42:00,36.5,34.2,30.10,ENE,73,0.0,1.0,91,0.00,,,0.00,meteobridge,2016-12-05 16:42:00,
2016-12-05 08:48:00,37.0,34.7,30.11,ENE,73,0.0,0.0,91,0.00,,,0.00,meteobridge,2016-12-05 16:48:00,
2016-12-05 08:53:00,37.4,35.1,30.11,ENE,73,0.0,1.0,91,0.00,,,0.00,meteobridge,2016-12-05 16:53:00,
2016-12-05 08:58:00,37.9,35.6,30.10,ENE,73,0.0,0.0,91,0.00,,,0.00,meteobridge,2016-12-05 16:58:00,
2016-12-05 09:03:00,38.5,36.1,30.10,ENE,73,0.0,0.0,91,0.00,,,0.00,meteobridge,2016-12-05 17:03:00,